Location: Newark
(0.5300°S, 127.4800°E)
Time: 05:11:10
(UTC+00:00)

Transit 2A Rocket - All Passes

Search period start: 20 September 2019 00:00
Search period end: 30 September 2019 00:00
Orbit: 592 x 911 km, 66.7° (Epoch: 19 September)

Date Brightness Start Highest point End Pass type
(mag) Time Alt. Az. Time Alt. Az. Time Alt. Az.
20 Sep - 00:52:20 10° SE 00:54:30 12° ESE 00:56:37 10° E daylight
20 Sep - 02:31:09 10° SSW 02:37:03 55° WNW 02:42:36 10° N daylight
20 Sep - 13:20:53 10° NNE 13:24:07 20° ENE 13:27:29 10° ESE night (unlit)
20 Sep - 15:03:35 10° WNW 15:06:24 17° WSW 15:09:20 10° SSW night (unlit)
21 Sep - 01:48:33 10° SSW 01:54:36 76° ESE 02:00:18 10° NNE daylight
21 Sep - 14:19:49 10° NW 14:23:52 37° WSW 14:28:11 10° S night (unlit)
22 Sep - 01:06:33 10° S 01:12:06 38° ESE 01:17:22 10° NE daylight
22 Sep - 02:50:38 10° WSW 02:54:24 17° WNW 02:58:02 10° NNW daylight
22 Sep - 13:37:03 10° NNW 13:41:24 88° ENE 13:46:04 10° SSE night (unlit)
23 Sep - 00:25:21 10° SSE 00:29:33 19° ESE 00:33:35 10° ENE daylight
23 Sep - 02:06:37 10° SW 02:11:59 34° WNW 02:17:04 10° N daylight
23 Sep - 12:55:00 10° N 12:58:59 35° ENE 13:03:12 10° SE night (unlit)
24 Sep - 01:23:33 10° SSW 01:29:33 70° WNW 01:35:11 10° NNE daylight
24 Sep - 12:14:00 10° NE 12:16:36 15° ENE 12:19:16 10° ESE night (unlit)
24 Sep - 13:55:23 10° WNW 13:58:49 22° WSW 14:02:26 10° SSW night (unlit)
25 Sep - 00:41:08 10° S 00:47:05 60° ESE 00:52:41 10° NNE daylight
25 Sep - 02:29:06 10° WNW 02:29:20 10° WNW 02:29:33 10° WNW daylight
25 Sep - 13:12:03 10° NW 13:16:18 51° WSW 13:20:52 10° S night (unlit)
25 Sep - 23:59:22 10° S 00:04:34 30° ESE 00:09:31 10° NE daylight
26 Sep - 01:42:27 10° WSW 01:46:54 22° WNW 01:51:09 10° NNW daylight
26 Sep - 12:29:32 10° NNW 12:33:52 65° ENE 12:38:29 10° SSE night (unlit)
26 Sep - 23:18:41 10° SE 23:21:59 15° ESE 23:25:12 10° ENE daylight
27 Sep - 00:58:50 10° SW 01:04:30 43° WNW 01:09:48 10° N daylight
27 Sep - 11:47:46 10° NNE 11:51:28 27° ENE 11:55:21 10° SE night (unlit)
27 Sep - 13:31:44 10° W 13:33:48 13° WSW 13:35:56 10° SW night (unlit)
28 Sep - 00:16:01 10° SSW 00:22:03 87° WNW 00:27:42 10° NNE daylight
28 Sep - 11:07:36 10° NE 11:09:04 11° ENE 11:10:33 10° E night (unlit)
28 Sep - 12:47:24 10° NW 12:51:15 29° WSW 12:55:20 10° S night (unlit)
28 Sep - 23:33:49 10° S 23:39:34 47° ESE 23:44:59 10° NE daylight
29 Sep - 01:19:07 10° W 01:21:50 13° WNW 01:24:27 10° NW daylight
29 Sep - 12:04:23 10° NNW 12:08:45 70° WSW 12:13:27 10° SSE night (unlit)
29 Sep - 22:52:19 10° SSE 22:57:01 24° ESE 23:01:31 10° ENE daylight
